User: anonymous   Login
Location: Unspecified
(0.0000°N, 0.0000°E)
Time: 03:40:21
(UTC+00:00)
Language:

FORMOSAT 3C - Orbit

View from above orbital plane
View from above orbital plane
View from above satellite
View from above satellite

Ground track
Ground track

The orbit data is extracted from the following two-line orbital elements,

1 29049U 06011C   18230.14300777 -.00000002  00000-0  15541-4 0  9998
2 29049  72.0203 115.5049 0033728 127.0257 233.3974 14.28661350644003
Epoch (UTC): 18 August 2018 03:25:55
Eccentricity: 0.0033728
inclination: 72.0203°
perigee height: 772 km
apogee height: 820 km
right ascension of ascending node: 115.5049°
argument of perigee: 127.0257°
revolutions per day: 14.28661350
mean anomaly at epoch: 233.3974°
orbit number at epoch: 64400

The dashed part of the orbit path shows where the satellite is in the earth's shadow,  

DLR